Previsão horária em Almozara

Hoje, 17 Janeiro, Domingo

Tempo Temperatura Precipitação Vento Pressão Humidade
00:00 +7°C° 0 mm 1 m/s 743 mmHg 96%
01:00 +7°C° 0 mm 1 m/s 742 mmHg 96%
02:00 +6°C° 0 mm 1 m/s 742 mmHg 97%
03:00 +7°C° 0 mm 1 m/s 742 mmHg 97%
04:00 +7°C° 0 mm 1 m/s 742 mmHg 97%
05:00 +8°C° 0 mm 1 m/s 742 mmHg 98%
06:00 +8°C° 0 mm 1 m/s 742 mmHg 97%
07:00 +9°C° 0 mm 1 m/s 742 mmHg 97%
08:00 +9°C° 0 mm 1 m/s 743 mmHg 96%
09:00 +11°C° 0 mm 1 m/s 743 mmHg 90%
10:00 +12°C° 0 mm 1 m/s 743 mmHg 85%
11:00 +14°C° 0 mm 1 m/s 743 mmHg 79%
12:00 +14°C° 0 mm 1 m/s 743 mmHg 80%
13:00 +14°C° 0 mm 1 m/s 742 mmHg 80%
14:00 +14°C° 0 mm 1 m/s 742 mmHg 81%
15:00 +13°C° 0 mm 1 m/s 742 mmHg 86%
16:00 +11°C° 0 mm 1 m/s 742 mmHg 91%
17:00 +10°C° 0 mm 1 m/s 742 mmHg 97%
18:00 +9°C° 0 mm 1 m/s 742 mmHg 97%
19:00 +9°C° 0 mm 1 m/s 742 mmHg 97%
20:00 +8°C° 0 mm 1 m/s 742 mmHg 98%
21:00 +8°C° 0 mm 1 m/s 742 mmHg 97%
22:00 +8°C° 0 mm 1 m/s 742 mmHg 97%
23:00 +8°C° 0 mm 1 m/s 742 mmHg 97%

Amanhã, 18 Janeiro, Segunda-feira

Tempo Temperatura Precipitação Vento Pressão Humidade
00:00 +7°C° 0 mm 1 m/s 741 mmHg 97%
01:00 +7°C° 0 mm 1 m/s 741 mmHg 97%
02:00 +7°C° 0 mm 1 m/s 740 mmHg 97%
03:00 +7°C° 0 mm 1 m/s 740 mmHg 96%
04:00 +7°C° 0 mm 1 m/s 740 mmHg 96%
05:00 +7°C° 0 mm 1 m/s 740 mmHg 96%
06:00 +7°C° 0 mm 1 m/s 740 mmHg 95%
07:00 +7°C° 0 mm 1 m/s 740 mmHg 93%
08:00 +7°C° 0 mm 1 m/s 740 mmHg 92%
09:00 +9°C° 0 mm 1 m/s 740 mmHg 83%
10:00 +12°C° 0 mm 1 m/s 740 mmHg 74%
11:00 +14°C° 0 mm 1 m/s 740 mmHg 65%
12:00 +14°C° 0 mm 1 m/s 740 mmHg 65%
13:00 +14°C° 0 mm 1 m/s 739 mmHg 65%
14:00 +14°C° 0 mm 2 m/s 738 mmHg 65%
15:00 +12°C° 0 mm 2 m/s 738 mmHg 75%
16:00 +10°C° 0 mm 1 m/s 738 mmHg 85%
17:00 +8°C° 0 mm 1 m/s 738 mmHg 95%
18:00 +7°C° 0 mm 2 m/s 738 mmHg 95%
19:00 +6°C° 0 mm 2 m/s 738 mmHg 96%
20:00 +5°C° 0 mm 2 m/s 737 mmHg 96%
21:00 +5°C° 0 mm 2 m/s 737 mmHg 96%
22:00 +4°C° 0 mm 3 m/s 737 mmHg 96%
23:00 +4°C° 0 mm 3 m/s 737 mmHg 96%

Depois de amanhã, 19 Janeiro, Terça-feira

Tempo Temperatura Precipitação Vento Pressão Humidade
00:00 +4°C° 0 mm 3 m/s 736 mmHg 95%
01:00 +4°C° 0 mm 4 m/s 736 mmHg 94%
02:00 +4°C° 0 mm 4 m/s 736 mmHg 93%
03:00 +4°C° 0 mm 4 m/s 735 mmHg 93%
04:00 +3°C° 0 mm 5 m/s 735 mmHg 92%
05:00 +3°C° 0 mm 5 m/s 734 mmHg 91%
06:00 +5°C° 0 mm 5 m/s 734 mmHg 90%
07:00 +4°C° 0 mm 6 m/s 734 mmHg 88%
08:00 +5°C° 0 mm 6 m/s 733 mmHg 86%
09:00 +5°C° 0 mm 6 m/s 733 mmHg 82%
10:00 +6°C° 0 mm 7 m/s 733 mmHg 77%
11:00 +8°C° 0 mm 7 m/s 732 mmHg 73%
12:00 +8°C° 0 mm 7 m/s 731 mmHg 75%
13:00 +7°C° 0 mm 8 m/s 730 mmHg 77%
14:00 +7°C° 0 mm 8 m/s 730 mmHg 79%
15:00 +7°C° 0.2 mm 8 m/s 729 mmHg 81%
16:00 +7°C° 0.2 mm 8 m/s 728 mmHg 84%
17:00 +7°C° 0.2 mm 8 m/s 728 mmHg 86%
18:00 +6°C° 0.6 mm 8 m/s 727 mmHg 87%
19:00 +6°C° 0.6 mm 8 m/s 726 mmHg 88%
20:00 +6°C° 0.6 mm 9 m/s 725 mmHg 90%
21:00 +6°C° 1.8 mm 9 m/s 724 mmHg 91%
22:00 +6°C° 1.8 mm 9 m/s 723 mmHg 91%
23:00 +6°C° 1.8 mm 9 m/s 722 mmHg 92%

20 Janeiro, Quarta-feira

Tempo Temperatura Precipitação Vento Pressão Humidade
00:00 +6°C° 2.4 mm 8 m/s 722 mmHg 93%
01:00 +7°C° 2.4 mm 8 m/s 721 mmHg 94%
02:00 +7°C° 2.4 mm 8 m/s 720 mmHg 94%
03:00 +7°C° 0.5 mm 8 m/s 720 mmHg 93%
04:00 +7°C° 0.5 mm 8 m/s 719 mmHg 93%
05:00 +7°C° 0.5 mm 8 m/s 718 mmHg 92%
06:00 +9°C° 2.4 mm 8 m/s 718 mmHg 93%
07:00 +8°C° 2.4 mm 9 m/s 717 mmHg 94%
08:00 +8°C° 2.4 mm 9 m/s 717 mmHg 95%
09:00 +8°C° 2.2 mm 9 m/s 717 mmHg 95%
10:00 +8°C° 2.2 mm 9 m/s 717 mmHg 94%
11:00 +8°C° 2.2 mm 9 m/s 717 mmHg 93%
12:00 +9°C° 1.1 mm 8 m/s 717 mmHg 93%
13:00 +9°C° 1.1 mm 8 m/s 717 mmHg 94%
14:00 +9°C° 1.1 mm 7 m/s 718 mmHg 94%
15:00 +9°C° 0.8 mm 7 m/s 718 mmHg 94%
16:00 +9°C° 0.8 mm 7 m/s 719 mmHg 95%
17:00 +9°C° 0.8 mm 7 m/s 719 mmHg 96%
18:00 +9°C° 0.6 mm 6 m/s 720 mmHg 95%
19:00 +9°C° 0.6 mm 6 m/s 721 mmHg 95%
20:00 +9°C° 0.6 mm 5 m/s 722 mmHg 95%
21:00 +9°C° 0.4 mm 5 m/s 723 mmHg 96%
22:00 +10°C° 0.4 mm 4 m/s 724 mmHg 96%
23:00 +8°C° 0.4 mm 4 m/s 724 mmHg 96%

21 Janeiro, Quinta-feira

Tempo Temperatura Precipitação Vento Pressão Humidade
00:00 +8°C° 0.2 mm 4 m/s 724 mmHg 96%
01:00 +8°C° 0.2 mm 4 m/s 725 mmHg 97%
02:00 +8°C° 0.2 mm 4 m/s 725 mmHg 97%
03:00 +8°C° 0.2 mm 4 m/s 725 mmHg 97%
04:00 +8°C° 0.2 mm 4 m/s 725 mmHg 96%
05:00 +8°C° 0.2 mm 5 m/s 725 mmHg 96%
06:00 +8°C° 1.2 mm 5 m/s 725 mmHg 96%
07:00 +9°C° 1.2 mm 6 m/s 724 mmHg 96%
08:00 +9°C° 1.2 mm 7 m/s 724 mmHg 96%
09:00 +9°C° 3.9 mm 7 m/s 723 mmHg 96%
10:00 +9°C° 3.9 mm 8 m/s 723 mmHg 96%
11:00 +10°C° 3.9 mm 8 m/s 722 mmHg 96%
12:00 +10°C° 2.6 mm 8 m/s 722 mmHg 96%
13:00 +10°C° 2.6 mm 7 m/s 722 mmHg 95%
14:00 +10°C° 2.6 mm 6 m/s 722 mmHg 94%
15:00 +9°C° 0.8 mm 6 m/s 722 mmHg 95%
16:00 +8°C° 0.8 mm 5 m/s 722 mmHg 96%
17:00 +8°C° 0.8 mm 5 m/s 722 mmHg 96%
18:00 +7°C° 2 mm 4 m/s 722 mmHg 97%
19:00 +7°C° 2 mm 4 m/s 723 mmHg 97%
20:00 +7°C° 2 mm 3 m/s 723 mmHg 98%
21:00 +7°C° 0.2 mm 4 m/s 723 mmHg 97%
22:00 +7°C° 0.2 mm 5 m/s 723 mmHg 97%
23:00 +7°C° 0.2 mm 5 m/s 723 mmHg 96%

22 Janeiro, Sexta-feira

Tempo Temperatura Precipitação Vento Pressão Humidade
00:00 +8°C° 0.7 mm 6 m/s 723 mmHg 95%
01:00 +8°C° 0.7 mm 7 m/s 722 mmHg 93%
02:00 +7°C° 0.7 mm 8 m/s 722 mmHg 92%
03:00 +7°C° 0.8 mm 8 m/s 722 mmHg 92%
04:00 +7°C° 0.8 mm 9 m/s 721 mmHg 92%
05:00 +7°C° 0.8 mm 9 m/s 721 mmHg 91%
06:00 +6°C° 1.3 mm 9 m/s 722 mmHg 92%
07:00 +6°C° 1.3 mm 8 m/s 724 mmHg 93%
08:00 +5°C° 1.3 mm 7 m/s 725 mmHg 94%
09:00 +5°C° 0.6 mm 6 m/s 726 mmHg 92%
10:00 +5°C° 0.6 mm 6 m/s 728 mmHg 91%
11:00 +6°C° 0.6 mm 5 m/s 729 mmHg 90%
12:00 +6°C° 0.3 mm 5 m/s 730 mmHg 87%
13:00 +6°C° 0.3 mm 5 m/s 730 mmHg 83%
14:00 +7°C° 0.3 mm 5 m/s 731 mmHg 80%
15:00 +6°C° 0.2 mm 5 m/s 731 mmHg 84%
16:00 +5°C° 0.2 mm 4 m/s 732 mmHg 87%
17:00 +4°C° 0.2 mm 4 m/s 732 mmHg 91%
18:00 +4°C° 0.1 mm 4 m/s 733 mmHg 91%
19:00 +3°C° 0.1 mm 3 m/s 734 mmHg 92%
20:00 +3°C° 0.1 mm 3 m/s 734 mmHg 93%
21:00 +3°C° 0.1 mm 3 m/s 735 mmHg 94%
22:00 +4°C° 0.1 mm 3 m/s 735 mmHg 95%
23:00 +4°C° 0.1 mm 3 m/s 735 mmHg 96%
Mostrar mais

Necessitamos do seu Consentimento

A Meteoprog e os seus Fornecedores de Serviços podem armazenar e aceder a dados pessoais como cookies, identificadores do dispositivo ou outras tecnologias semelhantes existentes no seu dispositivo e processar estes dados para personalizar conteúdos e anúncios, assim como funcionalidades nas redes sociais e análise de tráfego.

  • Armazenar e/ou aceder a informações no seu dispositivo

    Os cookies, identificadores do dispositivo ou outras informações podem ser armazenados ou acedidos no seu dispositivo, para os fins acima indicados.

  • Anúncios e conteúdos personalizados, medição de anúncios e conteúdos, dados sobre o público-alvo e desenvolvimento de produtos

    Os anúncios e os conteúdos podem ser personalizados com base num perfil. Podem ser adicionados dados adicionais para uma maior personalização dos anúncios e dos conteúdos. A eficácia dos anúncios e dos conteúdos pode ser medida. Podem ser obtidas informações sobre o público que visualizou os anúncios e os conteúdos. Estes dados podem ser usados para desenvolver ou melhorar sistemas, softwares ou a experiência do utilizador.

Ao clicar em "Eu concordo”, permitirá o uso de cookies, identificadores do dispositivo e web beacons mencionados ou outras tecnologias semelhantes. As configurações do navegador do seu dispositivo podem ser alteradas.

Para certos fins, podem ser invocados interesses legítimos ao invés de consentimento. Pode ler mais informação sobre este assunto na nossa Política de Privacidade e Cookies.